RH
15 20 26 31 39 36 24 21 25 27 27 29 29 31 33 29 32 36 41 45 47 47 49 53 56 64 76 80 84 82 77 80 82
9 9 12 18 20 21 17 18 21 25 25 26 28 30 31 30 28 31 36 39 41 42 43 44 49 54 58 61 64 67 67 67 69
8 8 9 10 12 15 15 19 20 22 24 28 29 32 33 30 30 31 31 32 38 38 40 42 43 44 50 55 60 62 65 68 69
9 9 9 9 12 16 18 22 22 24 27 29 30 33 35 32 31 32 31 30 31 35 37 39 40 43 45 46 51 56 60 62 62
10 11 16 18 18 21 23 21 20 24 27 29 31 33 34 32 32 33 33 36 33 31 33 37 38 40 42 46 50 55 59 62 66
12 12 21 20 21 25 27 26 21 24 27 28 31 34 33 32 30 30 33 36 34 33 34 35 36 36 38 40 44 48 52 56 60
14 14 14 19 22 24 27 27 24 26 30 31 32 34 34 34 31 28 31 34 35 33 33 36 41 44 43 44 44 45 45 47 48
15 16 16 17 18 23 23 23 23 26 31 31 32 33 34 34 31 28 32 35 35 34 36 42 43 47 47 45 45 44 44 45 44
16 16 18 19 20 22 23 23 25 27 31 30 33 34 34 35 33 30 31 36 36 38 41 40 42 48 48 48 49 48 47 44 43
18 18 19 21 21 21 22 23 27 27 31 35 35 34 35 34 34 37 33 35 37 38 40 39 47 48 48 46 46 49 48 46 44
19 21 21 22 24 25 25 25 28 29 32 36 37 36 35 36 37 37 36 34 36 40 40 44 43 48 48 50 50 49 49 50 47
21 21 23 24 26 28 29 29 31 31 31 32 34 33 36 37 36 35 35 36 35 39 42 42 45 45 48 50 48 45 46 46 43
22 23 24 26 27 29 31 30 31 33 33 33 34 34 35 35 35 33 36 38 34 37 40 41 41 42 43 43 43 41 42 40 39
23 24 26 27 29 30 31 31 31 32 35 35 35 35 34 34 34 34 35 36 36 34 33 40 41 42 42 42 42 38 34 35 34
24 26 27 29 30 31 31 31 31 32 33 34 35 35 35 35 34 34 33 33 34 34 33 34 37 39 38 39 40 36 38 38 39
26 27 28 29 30 30 32 32 30 32 33 33 35 34 33 32 31 30 29 29 30 30 31 32 32 33 35 38 44 44 41 37 32
27 28 28 29 30 31 32 32 31 32 33 32 32 35 35 35 34 32 32 32 31 31 31 32 33 35 38 40 38 37 38 36 31
28 29 28 28 29 31 32 33 33 33 35 35 35 38 38 39 38 38 37 36 35 35 34 33 33 34 35 38 42 41 39 37 36
30 30 30 29 31 34 35 37 38 37 37 39 40 42 43 43 44 43 41 40 39 39 38 37 38 38 38 38 37 34 35 34 30
32 32 32 32 33 35 38 40 42 43 43 43 44 47 49 50 49 49 47 46 45 44 42 41 41 40 40 40 40 39 37 36 33